Location: Newark
(49.8348°N, 24.0280°E)
Time: 00:07:02
(UTC+00:00)

deb Explorer IX - Pass Details

Date: 02 February 2020
Orbit: 549 x 1099 km, 38.8° (Epoch: 27 February)

Event Time Altitude Azimuth Distance (km) Brightness Sun altitude
Rises 18:13:52 0° 239° (WSW) 3,419 ? -28.2°
Reaches altitude 10° 18:16:34 10° 229° (SW) 2,572 ? -28.6°
Enters shadow 18:21:04 29° 184° (S) 1,688 ? -29.4°
